Regional Weather Roundup
Issued by NWS

Home | Current Version | Previous Version | Graphics & Text | Print | Product List | Glossary On
Versions: 1 2 3 4 5 6 7 8 9 10 11 12 13 14 15 16 17 18 19 20 21 22 23 24 25 26 27 28 29 30 31 32 33 34 35 36 37 38 39 40 41 42 43 44 45 46 47 48 49 50
000
ASUS45 KABQ 220010
RWRNM
WEATHER ROUNDUP FOR NEW MEXICO
NATIONAL WEATHER SERVICE ALBUQUERQUE NM
600 PM MDT THU AUG 21 2014

NOTE: "FAIR" MEANS FEW OR NO CLOUDS BELOW 12,000 FEET AGL WITH NO
       SIGNIFICANT WEATHER OR OBSTRUCTIONS TO VISION.

      THIS PRODUCT IS RELEASED AS TWO VERSIONS.  ONE VERSION NEAR
      THE TOP OF THE HOUR CONTAINING PRELIMINARY DATA FROM ALBUQUERQUE
      AND OTHER STATIONS.  A FINAL VERSION WITH ADDITIONAL DATA IS
      ISSUED ABOUT 10 MINUTES AFTER THE HOUR.

NMZ501-503-504-510>518-220100-
NORTHWEST PLATEAU/NORTHCENTRAL MOUNTAINS

CITY           SKY/WX    TMP DP  RH WIND       PRES   REMARKS
FARMINGTON     SUNNY     80  34  19 W10G18    30.10F
6HR MIN TEMP:  76; 6HR MAX TEMP:  86;

LOS ALAMOS     PTSUNNY   76  36  23 SW8       30.23S
SANTA FE       MOSUNNY   84  33  16 SW8       30.14F
6HR MIN TEMP:  80; 6HR MAX TEMP:  86;

TAOS           PTSUNNY   79  30  17 W10       30.21R
ANGEL FIRE     FAIR      73  33  22 W6        30.31S

$$
NMZ402-403-502-505>509-220100-
WESTCENTRAL MOUNTAINS/SOUTHWEST MOUNTAINS

CITY           SKY/WX    TMP DP  RH WIND       PRES   REMARKS
GALLUP         LGT RAIN  74  41  30 W10       30.19R
6HR MIN TEMP:  73; 6HR MAX TEMP:  82; 6HR PCP: TRACE;

SILVER CITY    PTSUNNY   82  46  28 SW10      30.12R

$$
NMZ407-409-411-412-220100-
SOUTHERN DESERTS

CITY           SKY/WX    TMP DP  RH WIND       PRES   REMARKS
LORDSBURG      FAIR      84  48  28 W8        30.04R
DEMING         MOSUNNY   87  41  19 W12       30.03S
6HR MIN TEMP:  84; 6HR MAX TEMP:  90;

LAS CRUCES     MOSUNNY   91  44  19 S6        30.03S
HOLLOMAN AFB   MOSUNNY   93  46  20 S13       29.97F
ALAMOGORDO     MOSUNNY   91  45  19 S9G17     30.00S
T OR C         MOSUNNY   88  43  20 S10       30.02F
6HR MIN TEMP:  82; 6HR MAX TEMP:  90;


$$
NMZ519>523-220100-
CENTRAL VALLEYS/CENTRAL HIGHLANDS

CITY           SKY/WX    TMP DP  RH WIND       PRES   REMARKS
ALBUQUERQUE    SUNNY     87  36  16 S8        30.07F
6HR MIN TEMP:  81; 6HR MAX TEMP:  88;

DOUBLE EAGLE   PTSUNNY   84  37  18 SE8       30.12S
MORIARTY ARPT  FAIR      82  36  19 SW7       30.15S
6HR MIN TEMP:  81; 6HR MAX TEMP:  87;

CLINES CORNERS MOSUNNY   77  39  25 SW6       30.20S
6HR MIN TEMP:  77; 6HR MAX TEMP:  82;

BELEN          FAIR      84  38  19 CALM      30.06F
6HR MIN TEMP:  81; 6HR MAX TEMP:  89;

SOCORRO        FAIR      89  42  18 SW8       30.03F
6HR MIN TEMP:  84; 6HR MAX TEMP:  92;


$$
NMZ524>526-539-540-220100-
SOUTHCENTRAL MOUNTAINS

CITY           SKY/WX    TMP DP  RH WIND       PRES   REMARKS
RUIDOSO        MOSUNNY   77  46  33 SE5       30.22S

$$
NMZ527>531-220100-
NORTHEAST HIGHLANDS/NORTHEAST PLAINS

CITY           SKY/WX    TMP DP  RH WIND       PRES   REMARKS
LAS VEGAS      MOSUNNY   79  37  22 S16       30.18R
6HR MIN TEMP:  78; 6HR MAX TEMP:  85;

RATON          MOSUNNY   84  39  20 S8        30.12S
6HR MIN TEMP:  80; 6HR MAX TEMP:  86;

CLAYTON        PTSUNNY   89  46  22 SE10      30.03S
6HR MIN TEMP:  87; 6HR MAX TEMP:  94;


$$
NMZ532>537-220100-
EASTCENTRAL PLAINS

CITY           SKY/WX    TMP DP  RH WIND       PRES   REMARKS
TUCUMCARI      SUNNY     94  41  16 SW8       29.95S
6HR MIN TEMP:  91; 6HR MAX TEMP: 100;

CANNON AFB     MOSUNNY   92  49  22 W10       30.00F
6HR MIN TEMP:  89; 6HR MAX TEMP:  96;

CLOVIS AIRPORT   N/A     91  48  22 SW10      30.02S

$$
NMZ028-029-538-220100-
SOUTHEAST PLAINS

CITY           SKY/WX    TMP DP  RH WIND       PRES   REMARKS
ROSWELL        SUNNY     94  48  20 S14G22    29.94S
6HR MIN TEMP:  89; 6HR MAX TEMP:  97;

ARTESIA        MOSUNNY   95  48  20 SW9       29.94S
CARLSBAD         N/A     95  54  25 S20G28    29.91S
6HR MIN TEMP:  93; 6HR MAX TEMP: 100;

HOBBS          MOSUNNY   91  55  29 S12       29.98F


$$



USA.gov is the U.S. government's official web portal to all federal, state and local government web resources and services.